Location: Boiro
(42.6475°N, 8.8834°W)
Time: 16:48:31
(UTC+01:00)

Explorer 11/Cluster Stage 4 - Pass Details

Date: 01 December 2021
Orbit: 467 x 1255 km, 28.8° (Epoch: 21 January)

Event Time Altitude Azimuth Distance (km) Brightness Sun altitude
Rises 04:51:14 0° 227° (SW) 3,765 - -42.5°
Reaches altitude 10° 04:54:24 10° 213° (SSW) 2,933 - -41.9°
Maximum altitude 04:59:59 23° 164° (SSE) 2,255 - -40.9°
Exits shadow 05:01:19 22° 150° (SSE) 2,333 9.1 -40.6°
Drops below altitude 10° 05:06:01 10° 116° (ESE) 3,204 10.2 -39.8°
Sets 05:09:39 0° 103° (ESE) 4,194 11.1 -39.1°
